Location: Newark
(19.5361°N, 155.5761°W)
Time: 00:42:20
(UTC+00:00)

NOAA 18 - Visible Passes

Search period start: 03 April 2020 00:00
Search period end: 13 April 2020 00:00
Orbit: 840 x 862 km, 99.1° (Epoch: 02 April)

Date Brightness Start Highest point End Pass type
(mag) Time Alt. Az. Time Alt. Az. Time Alt. Az.
03 Apr 7.4 07:08:11 15° N 07:08:11 15° N 07:09:08 10° N visible
04 Apr 7.3 06:56:10 15° N 06:56:10 15° N 06:57:10 10° N visible
05 Apr 7.3 06:44:07 15° NNE 06:44:07 15° NNE 06:45:06 10° NNE visible
06 Apr 7.3 06:32:05 13° NNE 06:32:05 13° NNE 06:32:53 10° NNE visible
07 Apr 7.4 06:20:03 11° NNE 06:20:03 11° NNE 06:20:28 10° NNE visible
07 Apr 8.1 08:02:03 11° NW 08:02:03 11° NW 08:02:11 10° NW visible
08 Apr 7.8 07:50:01 13° NNW 07:50:01 13° NNW 07:50:39 10° NNW visible
09 Apr 7.6 07:37:58 16° NNW 07:37:58 16° NNW 07:39:01 10° NNW visible
10 Apr 7.4 07:25:56 18° NNW 07:25:56 18° NNW 07:27:17 10° NNW visible
11 Apr 7.2 07:13:54 20° N 07:13:54 20° N 07:15:27 10° N visible
12 Apr 7.1 07:01:52 20° N 07:01:52 20° N 07:03:31 10° N visible
